KKP3016 YBRK-YBBN

Flight info

Callsign KKP3016
Flight time 0h 52m
Altitude 35000
Route RK V111 RUROX Y177 BN
Aircraft A319/M-SDE3FGHIRWY/LB1

Departure

Time 2026-04-23 21:35
Airport Rockhampton Airport (YBRK)

Arrival

Time 2026-04-23 22:27
Airport Brisbane International Airport (YBBN)
Time Latitude Longitude Altitude Speed Heading
2026-04-23 21:22 -23.37788 150.47757 41 ft 0 kts 105°
2026-04-23 21:24 -23.37788 150.47756 41 ft 0 kts 105°
2026-04-23 21:31 -23.37792 150.47764 41 ft 1 kts 137°
2026-04-23 21:31 -23.37797 150.47756 39 ft 2 kts 229°
2026-04-23 21:32 -23.37799 150.47710 41 ft 8 kts 303°
2026-04-23 21:32 -23.37766 150.47700 41 ft 10 kts 323°
2026-04-23 21:32 -23.37673 150.47577 42 ft 23 kts 287°
2026-04-23 21:32 -23.37622 150.47378 42 ft 32 kts 320°
2026-04-23 21:33 -23.37386 150.47270 43 ft 42 kts 337°
2026-04-23 21:33 -23.37215 150.47182 43 ft 12 kts 31°
2026-04-23 21:33 -23.37224 150.47195 43 ft 2 kts 155°
2026-04-23 21:33 -23.37255 150.47210 43 ft 8 kts 156°
2026-04-23 21:34 -23.37329 150.47243 43 ft 37 kts 158°
2026-04-23 21:34 -23.37783 150.47443 41 ft 104 kts 158°
2026-04-23 21:34 -23.38625 150.47818 114 ft 149 kts 156°
2026-04-23 21:34 -23.39629 150.48247 621 ft 161 kts 158°
2026-04-23 21:35 -23.41136 150.48868 1335 ft 187 kts 157°
2026-04-23 21:35 -23.41969 150.49204 1764 ft 200 kts 155°
2026-04-23 21:35 -23.43328 150.49830 2326 ft 224 kts 152°
2026-04-23 21:35 -23.44794 150.50545 3117 ft 238 kts 153°
2026-04-23 21:36 -23.47940 150.52029 5029 ft 254 kts 159°
2026-04-23 21:36 -23.49739 150.52196 5956 ft 266 kts 180°
2026-04-23 21:36 -23.51600 150.52066 6937 ft 270 kts 180°
2026-04-23 21:37 -23.53487 150.51942 7867 ft 274 kts 181°
2026-04-23 21:37 -23.55401 150.51820 8812 ft 277 kts 181°
2026-04-23 21:37 -23.57340 150.51699 9763 ft 281 kts 181°
2026-04-23 21:37 -23.59326 150.51578 10432 ft 295 kts 181°
2026-04-23 21:38 -23.61459 150.51452 10739 ft 319 kts 181°
2026-04-23 21:38 -23.63752 150.51313 11114 ft 337 kts 181°
2026-04-23 21:38 -23.66116 150.51165 11798 ft 343 kts 181°
2026-04-23 21:38 -23.68519 150.51012 12555 ft 347 kts 182°
2026-04-23 21:39 -23.70946 150.50857 13291 ft 352 kts 182°
2026-04-23 21:39 -23.73401 150.50699 14029 ft 356 kts 182°
2026-04-23 21:39 -23.75887 150.50541 14679 ft 360 kts 182°
2026-04-23 21:39 -23.78398 150.50573 15336 ft 363 kts 175°
2026-04-23 21:40 -23.80921 150.50804 16000 ft 366 kts 175°
2026-04-23 21:40 -23.83467 150.51036 16661 ft 368 kts 175°
2026-04-23 21:40 -23.86031 150.51267 17336 ft 371 kts 175°
2026-04-23 21:40 -23.88615 150.51502 18016 ft 374 kts 176°
2026-04-23 21:41 -23.91220 150.51737 18683 ft 377 kts 176°
2026-04-23 21:41 -23.93811 150.51972 19258 ft 380 kts 176°
2026-04-23 21:41 -23.96457 150.52214 19845 ft 383 kts 176°
2026-04-23 21:41 -23.99125 150.52451 20440 ft 386 kts 176°
2026-04-23 21:42 -24.01816 150.52686 21027 ft 389 kts 176°
2026-04-23 21:42 -24.04525 150.52928 21586 ft 393 kts 176°
2026-04-23 21:42 -24.07259 150.53176 22126 ft 396 kts 176°
2026-04-23 21:42 -24.10015 150.53426 22641 ft 399 kts 176°
2026-04-23 21:43 -24.12791 150.53674 23159 ft 402 kts 176°
2026-04-23 21:43 -24.15587 150.53924 23670 ft 405 kts 176°
2026-04-23 21:43 -24.18405 150.54177 24114 ft 408 kts 176°
2026-04-23 21:43 -24.21243 150.54433 24530 ft 411 kts 177°
2026-04-23 21:44 -24.24101 150.54694 24956 ft 413 kts 177°
2026-04-23 21:44 -24.26974 150.54954 25365 ft 416 kts 177°
2026-04-23 21:44 -24.29864 150.55214 25774 ft 418 kts 177°
2026-04-23 21:44 -24.32774 150.55477 26185 ft 421 kts 177°
2026-04-23 21:45 -24.35703 150.55740 26592 ft 424 kts 177°
2026-04-23 21:45 -24.38649 150.56007 26998 ft 426 kts 177°
2026-04-23 21:45 -24.41616 150.56278 27396 ft 429 kts 178°
2026-04-23 21:45 -24.44595 150.56549 27787 ft 431 kts 178°
2026-04-23 21:46 -24.47574 150.57046 28168 ft 436 kts 169°
2026-04-23 21:46 -24.50472 150.58104 28553 ft 442 kts 159°
2026-04-23 21:46 -24.53196 150.59721 28902 ft 449 kts 150°
2026-04-23 21:46 -24.55796 150.61637 29266 ft 452 kts 149°
2026-04-23 21:47 -24.58413 150.63562 29615 ft 454 kts 149°
2026-04-23 21:47 -24.61048 150.65487 29967 ft 456 kts 149°
2026-04-23 21:47 -24.63704 150.67417 30306 ft 459 kts 150°
2026-04-23 21:47 -24.66374 150.69354 30591 ft 461 kts 150°
2026-04-23 21:48 -24.69044 150.71296 30903 ft 462 kts 150°
2026-04-23 21:48 -24.71732 150.73257 31250 ft 463 kts 150°
2026-04-23 21:48 -24.74416 150.75219 31600 ft 463 kts 150°
2026-04-23 21:48 -24.77097 150.77180 31969 ft 463 kts 150°
2026-04-23 21:49 -24.79779 150.79144 32339 ft 463 kts 150°
2026-04-23 21:49 -24.82459 150.81109 32699 ft 463 kts 150°
2026-04-23 21:49 -24.85141 150.83077 33075 ft 463 kts 150°
2026-04-23 21:49 -24.87820 150.85048 33448 ft 463 kts 150°
2026-04-23 21:50 -24.90500 150.87019 33837 ft 463 kts 150°
2026-04-23 21:50 -24.93186 150.88991 34224 ft 463 kts 150°
2026-04-23 21:50 -24.95867 150.90959 34574 ft 464 kts 150°
2026-04-23 21:50 -24.98550 150.92930 34914 ft 464 kts 150°
2026-04-23 21:51 -25.01236 150.94902 35052 ft 463 kts 150°
2026-04-23 21:51 -25.06539 150.98808 35085 ft 460 kts 150°
2026-04-23 21:52 -25.11864 151.02730 35086 ft 460 kts 150°
2026-04-23 21:52 -25.17189 151.06652 35087 ft 460 kts 150°
2026-04-23 21:53 -25.22512 151.10578 35085 ft 460 kts 150°
2026-04-23 21:53 -25.27837 151.14513 35092 ft 460 kts 150°
2026-04-23 21:54 -25.33158 151.18452 35098 ft 461 kts 150°
2026-04-23 21:54 -25.38481 151.22397 35098 ft 461 kts 150°
2026-04-23 21:55 -25.43802 151.26346 35098 ft 461 kts 150°
2026-04-23 21:55 -25.49129 151.30294 35103 ft 461 kts 150°
2026-04-23 21:56 -25.54451 151.34250 35103 ft 461 kts 150°
2026-04-23 21:56 -25.59768 151.38209 35101 ft 461 kts 150°
2026-04-23 21:57 -25.65094 151.42172 35100 ft 461 kts 149°
2026-04-23 21:57 -25.70377 151.46118 35101 ft 461 kts 149°
2026-04-23 21:58 -25.75591 151.50271 35095 ft 465 kts 142°
2026-04-23 21:58 -25.80411 151.55055 35092 ft 465 kts 141°
2026-04-23 21:59 -25.85235 151.59843 35086 ft 465 kts 141°
2026-04-23 21:59 -25.90065 151.64641 35093 ft 466 kts 141°
2026-04-23 22:00 -25.97302 151.71853 35092 ft 466 kts 141°
2026-04-23 22:00 -26.02125 151.76668 35095 ft 466 kts 141°
2026-04-23 22:01 -26.06952 151.81483 35088 ft 466 kts 141°
2026-04-23 22:01 -26.11783 151.86295 35095 ft 466 kts 141°
2026-04-23 22:02 -26.16608 151.91124 35093 ft 467 kts 141°
2026-04-23 22:02 -26.21403 151.95932 35078 ft 468 kts 141°
2026-04-23 22:03 -26.26244 152.00786 35077 ft 469 kts 141°
2026-04-23 22:03 -26.31069 152.05627 34808 ft 461 kts 141°
2026-04-23 22:04 -26.33458 152.08030 33690 ft 464 kts 141°
2026-04-23 22:04 -26.35858 152.10441 32490 ft 465 kts 141°
2026-04-23 22:04 -26.38262 152.12856 31302 ft 465 kts 141°
2026-04-23 22:04 -26.40663 152.15269 30057 ft 465 kts 141°
2026-04-23 22:05 -26.43062 152.17685 28685 ft 464 kts 140°
2026-04-23 22:05 -26.45428 152.20072 27682 ft 454 kts 140°
2026-04-23 22:05 -26.47777 152.22446 26678 ft 445 kts 140°
2026-04-23 22:05 -26.50022 152.24715 25747 ft 437 kts 141°
2026-04-23 22:06 -26.52258 152.26969 24799 ft 429 kts 141°
2026-04-23 22:06 -26.54457 152.29184 23894 ft 422 kts 141°
2026-04-23 22:06 -26.56557 152.31301 22873 ft 414 kts 141°
2026-04-23 22:06 -26.58732 152.33499 21862 ft 406 kts 140°
2026-04-23 22:07 -26.60832 152.35629 20908 ft 399 kts 140°
2026-04-23 22:07 -26.62867 152.37695 20019 ft 392 kts 140°
2026-04-23 22:07 -26.64868 152.39730 19173 ft 385 kts 140°
2026-04-23 22:07 -26.66810 152.41727 18678 ft 370 kts 140°
2026-04-23 22:08 -26.68638 152.43621 18416 ft 347 kts 140°
2026-04-23 22:08 -26.70354 152.45406 18151 ft 327 kts 140°
2026-04-23 22:08 -26.71980 152.47096 17854 ft 311 kts 140°
2026-04-23 22:08 -26.73544 152.48717 17419 ft 302 kts 140°
2026-04-23 22:09 -26.75065 152.50289 16957 ft 295 kts 140°
2026-04-23 22:09 -26.76555 152.51827 16498 ft 288 kts 140°
2026-04-23 22:09 -26.77994 152.53311 16046 ft 283 kts 140°
2026-04-23 22:09 -26.79429 152.54791 15590 ft 278 kts 140°
2026-04-23 22:10 -26.80842 152.56249 15127 ft 274 kts 140°
2026-04-23 22:10 -26.82202 152.57652 14683 ft 271 kts 140°
2026-04-23 22:10 -26.83584 152.59081 14226 ft 269 kts 139°
2026-04-23 22:10 -26.84947 152.60493 13733 ft 266 kts 139°
2026-04-23 22:11 -26.86297 152.61889 13268 ft 262 kts 139°
2026-04-23 22:11 -26.87627 152.63264 12817 ft 259 kts 139°
2026-04-23 22:11 -26.88667 152.64338 12464 ft 255 kts 139°
2026-04-23 22:11 -26.89967 152.65678 12020 ft 253 kts 139°
2026-04-23 22:12 -26.91253 152.67005 11583 ft 250 kts 139°
2026-04-23 22:12 -26.92530 152.68323 11169 ft 247 kts 139°
2026-04-23 22:12 -26.93748 152.69581 11102 ft 230 kts 139°
2026-04-23 22:12 -26.94891 152.70764 10848 ft 222 kts 139°
2026-04-23 22:13 -26.96024 152.71938 10421 ft 222 kts 139°
2026-04-23 22:13 -26.97154 152.73106 9968 ft 220 kts 138°
2026-04-23 22:13 -26.98284 152.74262 9513 ft 219 kts 139°
2026-04-23 22:13 -26.99316 152.75443 9357 ft 203 kts 130°
2026-04-23 22:14 -27.00114 152.76738 9220 ft 210 kts 121°
2026-04-23 22:14 -27.00697 152.78187 9952 ft 211 kts 115°
2026-04-23 22:14 -27.01309 152.79830 9892 ft 255 kts 115°
2026-04-23 22:14 -27.02052 152.81791 9648 ft 273 kts 115°
2026-04-23 22:15 -27.02791 152.83760 9315 ft 274 kts 115°
2026-04-23 22:15 -27.03526 152.85732 8948 ft 274 kts 115°
2026-04-23 22:15 -27.04260 152.87703 8567 ft 273 kts 109°
2026-04-23 22:15 -27.04987 152.89668 8208 ft 272 kts 114°
2026-04-23 22:16 -27.05714 152.91624 7857 ft 271 kts 114°
2026-04-23 22:16 -27.06437 152.93561 7525 ft 269 kts 114°
2026-04-23 22:16 -27.07151 152.95486 7161 ft 268 kts 113°
2026-04-23 22:16 -27.07639 152.97494 6861 ft 266 kts 105°
2026-04-23 22:17 -27.08053 152.99527 6517 ft 265 kts 105°
2026-04-23 22:17 -27.08466 153.01531 6174 ft 263 kts 105°
2026-04-23 22:17 -27.08877 153.03531 5835 ft 263 kts 105°
2026-04-23 22:17 -27.09288 153.05522 5517 ft 261 kts 105°
2026-04-23 22:18 -27.09704 153.07520 5170 ft 259 kts 105°
2026-04-23 22:18 -27.10113 153.09486 4833 ft 258 kts 106°
2026-04-23 22:18 -27.10471 153.11454 4460 ft 258 kts 99°
2026-04-23 22:18 -27.10419 153.13470 4185 ft 258 kts 85°
2026-04-23 22:19 -27.10167 153.15426 4053 ft 248 kts 86°
2026-04-23 22:19 -27.09937 153.17311 3906 ft 241 kts 86°
2026-04-23 22:19 -27.09846 153.19163 3666 ft 235 kts 99°
2026-04-23 22:19 -27.10180 153.20931 3327 ft 230 kts 115°
2026-04-23 22:20 -27.11031 153.22433 3060 ft 233 kts 137°
2026-04-23 22:20 -27.12362 153.23480 3014 ft 236 kts 157°
2026-04-23 22:20 -27.13404 153.23833 3017 ft 236 kts 169°
2026-04-23 22:20 -27.14999 153.23793 3014 ft 225 kts 190°
2026-04-23 22:21 -27.16851 153.22918 3012 ft 207 kts 202°
2026-04-23 22:21 -27.17682 153.22445 3016 ft 197 kts 202°
2026-04-23 22:21 -27.18846 153.21781 3042 ft 177 kts 202°
2026-04-23 22:21 -27.20147 153.21037 3014 ft 139 kts 200°
2026-04-23 22:22 -27.20707 153.20719 3015 ft 130 kts 200°
2026-04-23 22:22 -27.21496 153.20273 2998 ft 125 kts 199°
2026-04-23 22:22 -27.22503 153.19701 2870 ft 122 kts 198°
2026-04-23 22:22 -27.23012 153.19412 2784 ft 120 kts 200°
2026-04-23 22:23 -27.23758 153.18987 2638 ft 120 kts 200°
2026-04-23 22:23 -27.24500 153.18564 2488 ft 119 kts 199°
2026-04-23 22:23 -27.25241 153.18142 2332 ft 119 kts 199°
2026-04-23 22:23 -27.25979 153.17722 2173 ft 119 kts 199°
2026-04-23 22:24 -27.26713 153.17303 2012 ft 119 kts 201°
2026-04-23 22:24 -27.27453 153.16881 1847 ft 119 kts 200°
2026-04-23 22:24 -27.28191 153.16460 1692 ft 119 kts 201°
2026-04-23 22:24 -27.28918 153.16045 1530 ft 119 kts 203°
2026-04-23 22:25 -27.29666 153.15618 1368 ft 119 kts 203°
2026-04-23 22:25 -27.30395 153.15202 1211 ft 118 kts 202°
2026-04-23 22:25 -27.31136 153.14779 1046 ft 120 kts 204°
2026-04-23 22:25 -27.31871 153.14346 905 ft 118 kts 206°
2026-04-23 22:26 -27.32601 153.13917 737 ft 118 kts 205°
2026-04-23 22:26 -27.33340 153.13520 595 ft 117 kts 206°
2026-04-23 22:26 -27.34066 153.13108 454 ft 118 kts 206°
2026-04-23 22:26 -27.34811 153.12703 263 ft 118 kts 209°
2026-04-23 22:27 -27.35533 153.12280 114 ft 117 kts 207°
2026-04-23 22:27 -27.36206 153.11885 24 ft 95 kts 207°
2026-04-23 22:27 -27.36712 153.11594 18 ft 66 kts 207°
2026-04-23 22:27 -27.37043 153.11405 19 ft 44 kts 206°
2026-04-23 22:28 -27.37292 153.11336 19 ft 30 kts 187°
2026-04-23 22:28 -27.37505 153.11381 18 ft 35 kts 125°
2026-04-23 22:28 -27.37420 153.11578 18 ft 29 kts 95°
2026-04-23 22:28 -27.37506 153.11794 19 ft 32 kts 117°
2026-04-23 22:29 -27.37612 153.12028 18 ft 35 kts 117°
2026-04-23 22:29 -27.37730 153.12285 18 ft 39 kts 116°
2026-04-23 22:29 -27.37856 153.12570 18 ft 43 kts 117°
2026-04-23 22:29 -27.38006 153.12778 18 ft 25 kts 162°
2026-04-23 22:30 -27.38082 153.12712 19 ft 15 kts 222°
2026-04-23 22:30 -27.38189 153.12654 19 ft 19 kts 205°
2026-04-23 22:30 -27.38326 153.12578 18 ft 25 kts 207°
2026-04-23 22:30 -27.38495 153.12479 18 ft 30 kts 207°
2026-04-23 22:31 -27.38698 153.12362 18 ft 31 kts 207°
2026-04-23 22:31 -27.38787 153.12258 18 ft 19 kts 266°
2026-04-23 22:31 -27.38749 153.12104 18 ft 22 kts 282°
2026-04-23 22:31 -27.38755 153.12040 19 ft 1 kts 259°
2026-04-23 22:32 -27.38750 153.12031 18 ft 1 kts 303°
2026-04-23 22:32 -27.38744 153.12037 18 ft 3 kts 37°
2026-04-23 22:32 -27.38718 153.12064 18 ft 4 kts 309°
2026-04-23 22:32 -27.38686 153.12016 18 ft 8 kts 307°
2026-04-23 22:33 -27.38682 153.12011 18 ft 0 kts 307°
2026-04-23 22:33 -27.38683 153.12011 18 ft 0 kts 307°